QPF
0.00 0.00 0.02 0.02 0.01 0.01 0.01 0.00 0.00 0.00 0.00 0.00 0.00 0.00 0.00 0.00 0.00 0.00 0.00 0.00 0.00 0.00 0.00 0.00 0.00 0.00 0.00 0.00 0.00 0.00 0.00 0.00 0.00 0.00 0.00 0.00 0.01 0.01 0.00 0.00 0.00 0.00 0.01
0.00 0.00 0.01 0.00 0.00 0.00 0.00 0.00 0.00 0.00 0.00 0.00 0.00 0.00 0.01 0.00 0.00 0.00 0.00 0.00 0.00 0.00 0.00 0.00 0.00 0.00 0.00 0.00 0.00 0.00 0.00 0.00 0.01 0.01 0.00 0.00 0.04 0.01 0.00 0.00 0.00 0.00 0.00
0.00 0.00 0.00 0.00 0.00 0.00 0.00 0.00 0.00 0.00 0.00 0.00 0.00 0.00 0.01 0.00 0.00 0.00 0.00 0.00 0.00 0.00 0.00 0.00 0.00 0.00 0.00 0.00 0.00 0.01 0.01 0.00 0.00 0.00 0.00 0.00 0.00 0.00 0.00 0.00 0.00 0.00 0.00
0.00 0.00 0.00 0.00 0.00 0.00 0.00 0.00 0.00 0.00 0.00 0.00 0.00 0.00 0.00 0.00 0.00 0.00 0.00 0.00 0.00 0.00 0.00 0.00 0.00 0.00 0.00 0.00 0.00 0.01 0.00 0.00 0.00 0.00 0.00 0.00 0.00 0.00 0.00 0.00 0.00 0.00 0.01
0.00 0.00 0.00 0.00 0.00 0.00 0.00 0.00 0.00 0.00 0.00 0.00 0.00 0.00 0.00 0.00 0.00 0.00 0.00 0.00 0.03 0.00 0.00 0.00 0.00 0.00 0.00 0.00 0.02 0.01 0.00 0.00 0.00 0.00 0.00 0.00 0.00 0.00 0.00 0.00 0.00 0.00 0.00
0.00 0.00 0.00 0.00 0.00 0.00 0.00 0.00 0.00 0.00 0.00 0.00 0.00 0.00 0.00 0.00 0.00 0.00 0.00 0.00 0.01 0.00 0.00 0.00 0.00 0.00 0.00 0.00 0.00 0.00 0.00 0.00 0.00 0.00 0.00 0.00 0.00 0.00 0.00 0.00 0.00 0.00 0.00
0.00 0.00 0.00 0.00 0.00 0.00 0.00 0.00 0.00 0.00 0.00 0.00 0.00 0.00 0.00 0.00 0.00 0.00 0.00 0.00 0.00 0.00 0.00 0.00 0.00 0.00 0.00 0.00 0.00 0.00 0.00 0.00 0.00 0.00 0.00 0.00 0.00 0.00 0.00 0.00 0.00 0.00 0.00
0.00 0.00 0.00 0.00 0.00 0.00 0.00 0.00 0.00 0.00 0.00 0.00 0.00 0.00 0.00 0.00 0.01 0.02 0.01 0.01 0.00 0.00 0.03 0.02 0.00 0.00 0.00 0.00 0.00 0.00 0.00 0.00 0.00 0.00 0.00 0.00 0.00 0.00 0.00 0.00 0.00 0.00 0.00
0.00 0.00 0.00 0.00 0.00 0.00 0.00 0.00 0.00 0.00 0.00 0.01 0.02 0.02 0.02 0.01 0.00 0.01 0.04 0.04 0.00 0.00 0.03 0.02 0.00 0.00 0.00 0.00 0.00 0.00 0.00 0.00 0.00 0.00 0.00 0.00 0.00 0.00 0.00 0.00 0.00 0.00 0.00
0.00 0.00 0.00 0.00 0.00 0.00 0.00 0.00 0.00 0.00 0.00 0.01 0.00 0.02 0.05 0.03 0.01 0.02 0.03 0.07 0.07 0.02 0.02 0.03 0.00 0.00 0.00 0.00 0.00 0.00 0.00 0.00 0.00 0.00 0.00 0.00 0.00 0.00 0.01 0.00 0.00 0.00 0.00
0.00 0.00 0.00 0.00 0.00 0.00 0.00 0.00 0.01 0.01 0.01 0.03 0.02 0.03 0.05 0.01 0.01 0.06 0.04 0.04 0.06 0.07 0.04 0.02 0.00 0.00 0.00 0.00 0.00 0.00 0.00 0.00 0.00 0.00 0.00 0.00 0.00 0.00 0.01 0.00 0.00 0.00 0.00
0.00 0.00 0.00 0.00 0.00 0.00 0.00 0.01 0.00 0.02 0.02 0.06 0.09 0.06 0.04 0.04 0.05 0.08 0.05 0.06 0.03 0.05 0.06 0.02 0.00 0.00 0.00 0.00 0.00 0.00 0.00 0.00 0.00 0.00 0.00 0.00 0.00 0.00 0.00 0.00 0.00 0.00 0.00
0.00 0.00 0.00 0.00 0.00 0.00 0.00 0.00 0.00 0.01 0.01 0.03 0.07 0.09 0.02 0.06 0.13 0.11 0.06 0.01 0.02 0.05 0.02 0.01 0.00 0.00 0.00 0.00 0.00 0.00 0.00 0.00 0.00 0.00 0.00 0.00 0.00 0.00 0.00 0.00 0.00 0.00 0.00
0.00 0.00 0.00 0.00 0.00 0.00 0.00 0.00 0.00 0.00 0.00 0.01 0.03 0.05 0.07 0.02 0.04 0.05 0.05 0.00 0.00 0.05 0.04 0.00 0.00 0.00 0.00 0.00 0.00 0.00 0.00 0.00 0.00 0.00 0.00 0.00 0.00 0.00 0.00 0.00 0.00 0.00 0.00
0.00 0.00 0.00 0.00 0.00 0.00 0.00 0.00 0.00 0.00 0.00 0.00 0.01 0.00 0.01 0.00 0.00 0.01 0.04 0.02 0.00 0.03 0.06 0.04 0.00 0.01 0.00 0.00 0.00 0.00 0.00 0.00 0.00 0.00 0.00 0.00 0.00 0.00 0.00 0.00 0.00 0.00 0.00
0.00 0.00 0.00 0.00 0.00 0.00 0.00 0.00 0.00 0.00 0.00 0.00 0.00 0.00 0.00 0.00 0.00 0.01 0.01 0.01 0.02 0.00 0.01 0.03 0.03 0.01 0.00 0.00 0.00 0.00 0.00 0.00 0.00 0.00 0.00 0.00 0.00 0.00 0.00 0.00 0.00 0.00 0.00
0.00 0.00 0.00 0.00 0.00 0.00 0.00 0.00 0.00 0.00 0.00 0.00 0.00 0.00 0.00 0.00 0.00 0.00 0.00 0.00 0.02 0.01 0.00 0.02 0.03 0.00 0.00 0.00 0.00 0.00 0.00 0.00 0.00 0.00 0.00 0.00 0.00 0.00 0.00 0.00 0.02 0.04 0.01
0.00 0.00 0.00 0.00 0.00 0.00 0.00 0.00 0.00 0.00 0.00 0.00 0.00 0.00 0.01 0.00 0.00 0.00 0.00 0.00 0.00 0.01 0.00 0.00 0.00 0.00 0.00 0.00 0.00 0.00 0.00 0.00 0.00 0.00 0.00 0.00 0.00 0.00 0.00 0.00 0.02 0.05 0.02
0.00 0.00 0.00 0.00 0.00 0.00 0.00 0.00 0.00 0.00 0.00 0.00 0.00 0.00 0.00 0.01 0.00 0.00 0.00 0.00 0.00 0.00 0.00 0.00 0.00 0.00 0.00 0.00 0.00 0.00 0.00 0.00 0.00 0.00 0.00 0.00 0.00 0.00 0.00 0.00 0.00 0.00 0.00
0.00 0.00 0.00 0.00 0.00 0.00 0.00 0.00 0.00 0.00 0.00 0.00 0.00 0.00 0.00 0.00 0.00 0.00 0.00 0.04 0.04 0.00 0.00 0.00 0.00 0.00 0.00 0.00 0.00 0.00 0.00 0.00 0.00 0.00 0.00 0.00 0.00 0.00 0.00 0.00 0.00 0.00 0.00
0.00 0.00 0.00 0.00 0.00 0.00 0.00 0.00 0.00 0.00 0.00 0.00 0.00 0.00 0.00 0.00 0.00 0.00 0.00 0.09 0.14 0.04 0.02 0.02 0.00 0.00 0.00 0.00 0.00 0.00 0.00 0.00 0.00 0.00 0.00 0.00 0.00 0.00 0.00 0.00 0.00 0.00 0.00
0.00 0.00 0.00 0.00 0.00 0.00 0.00 0.00 0.00 0.00 0.00 0.00 0.00 0.00 0.00 0.00 0.00 0.00 0.00 0.00 0.04 0.11 0.12 0.17 0.03 0.00 0.00 0.00 0.00 0.00 0.00 0.00 0.00 0.00 0.00 0.00 0.00 0.00 0.00 0.00 0.00 0.00 0.00
0.00 0.00 0.00 0.00 0.00 0.00 0.00 0.00 0.00 0.00 0.00 0.00 0.00 0.00 0.00 0.00 0.00 0.00 0.00 0.00 0.00 0.03 0.07 0.07 0.13 0.04 0.01 0.03 0.00 0.03 0.02 0.01 0.02 0.00 0.00 0.00 0.00 0.00 0.00 0.00 0.00 0.00 0.00
0.00 0.00 0.00 0.00 0.00 0.00 0.00 0.00 0.00 0.00 0.00 0.00 0.00 0.00 0.00 0.00 0.00 0.00 0.00 0.00 0.04 0.08 0.07 0.04 0.03 0.10 0.16 0.13 0.11 0.09 0.07 0.05 0.07 0.01 0.00 0.00 0.00 0.00 0.00 0.00 0.00 0.00 0.00
0.00 0.00 0.00 0.00 0.01 0.01 0.01 0.00 0.00 0.00 0.00 0.00 0.00 0.00 0.00 0.00 0.00 0.00 0.00 0.00 0.01 0.04 0.05 0.06 0.07 0.06 0.09 0.14 0.13 0.10 0.10 0.10 0.11 0.07 0.03 0.01 0.00 0.00 0.00 0.00 0.00 0.00 0.00
0.00 0.00 0.00 0.00 0.01 0.02 0.02 0.01 0.01 0.00 0.00 0.00 0.00 0.00 0.00 0.00 0.00 0.00 0.00 0.00 0.01 0.02 0.03 0.05 0.06 0.10 0.11 0.09 0.13 0.11 0.03 0.07 0.08 0.07 0.07 0.01 0.00 0.00 0.00 0.00 0.00 0.00 0.00
MSLP
1009.34 1010.68 1011.84 1011.95 1012.06 1012.26 1012.71 1013.11 1013.32 1013.63 1013.93 1014.16 1014.47 1014.80 1015.25 1015.48 1015.77 1016.04 1016.25 1016.54 1016.78 1016.98 1017.11 1017.32 1017.39 1017.51 1017.62 1017.62 1017.73 1017.85 1017.84 1018.10 1018.26 1018.45 1018.64 1018.73 1019.00 1019.17 1019.23 1019.20 1018.94 1019.09 1019.90
1009.16 1010.72 1011.93 1012.12 1012.33 1012.53 1012.88 1013.27 1013.59 1013.94 1014.19 1014.55 1014.86 1015.15 1015.45 1015.79 1016.02 1016.38 1016.55 1016.78 1016.94 1017.21 1017.36 1017.52 1017.65 1017.71 1017.87 1017.97 1018.04 1018.22 1018.20 1018.28 1018.62 1018.74 1018.79 1018.87 1019.23 1019.39 1019.44 1019.36 1019.19 1019.83 1020.09
1009.22 1010.61 1011.70 1012.28 1012.51 1012.75 1013.10 1013.50 1013.91 1014.27 1014.53 1014.84 1015.16 1015.54 1015.83 1016.12 1016.36 1016.61 1016.85 1017.04 1017.25 1017.38 1017.61 1017.69 1017.89 1018.01 1018.14 1018.26 1018.32 1018.52 1018.56 1018.69 1018.93 1018.97 1018.65 1018.00 1018.90 1019.66 1019.77 1019.84 1020.05 1020.27 1020.46
1009.12 1010.35 1011.35 1012.51 1012.75 1012.96 1013.34 1013.77 1014.15 1014.46 1014.81 1015.09 1015.40 1015.76 1016.07 1016.39 1016.64 1016.89 1017.03 1017.25 1017.56 1017.63 1017.82 1017.92 1018.03 1018.22 1018.41 1018.55 1018.62 1018.85 1018.96 1019.09 1019.22 1018.76 1017.91 1018.10 1018.75 1019.91 1020.02 1020.14 1020.26 1020.46 1020.66
1009.41 1009.90 1011.43 1012.49 1012.89 1013.21 1013.55 1013.92 1014.27 1014.72 1015.00 1015.25 1015.57 1015.94 1016.30 1016.57 1016.86 1017.12 1017.25 1017.51 1017.75 1017.96 1018.08 1018.22 1018.33 1018.50 1018.68 1018.80 1018.98 1019.13 1019.17 1019.28 1019.25 1018.66 1018.26 1018.15 1018.52 1020.05 1020.28 1020.40 1020.51 1020.59 1020.59
1009.38 1009.86 1012.07 1012.50 1012.92 1013.38 1013.76 1014.05 1014.41 1014.87 1015.22 1015.48 1015.74 1016.07 1016.48 1016.79 1017.02 1017.23 1017.39 1017.66 1017.99 1018.15 1018.33 1018.45 1018.54 1018.72 1018.91 1019.05 1019.24 1019.49 1019.48 1019.51 1019.15 1018.36 1018.64 1019.01 1018.66 1020.20 1020.49 1020.47 1020.59 1020.83 1021.01
1009.53 1010.14 1012.05 1012.73 1013.05 1013.47 1013.91 1014.24 1014.55 1015.00 1015.42 1015.67 1015.90 1016.18 1016.47 1016.91 1017.21 1017.39 1017.60 1017.85 1018.14 1018.36 1018.46 1018.46 1018.70 1018.88 1019.03 1019.31 1019.47 1019.75 1019.69 1019.61 1018.56 1018.45 1018.70 1018.57 1019.68 1020.42 1020.60 1020.77 1020.98 1021.15 1021.20
1009.67 1010.39 1011.87 1013.06 1013.42 1013.68 1014.05 1014.47 1014.78 1015.14 1015.52 1015.88 1016.09 1016.30 1016.61 1016.93 1017.34 1017.61 1017.81 1018.13 1018.31 1018.47 1018.60 1018.69 1018.87 1019.07 1019.18 1019.51 1019.71 1019.89 1019.86 1019.69 1018.74 1018.73 1018.97 1018.92 1020.31 1020.58 1020.77 1021.00 1021.20 1021.31 1021.39
1009.93 1010.62 1011.91 1012.84 1013.59 1014.02 1014.27 1014.67 1015.01 1015.32 1015.69 1016.04 1016.37 1016.62 1016.90 1017.11 1017.41 1017.74 1018.00 1018.26 1018.47 1018.54 1018.87 1018.93 1019.08 1019.27 1019.44 1019.62 1019.85 1019.95 1020.06 1019.89 1018.70 1018.63 1018.84 1019.12 1020.59 1020.65 1020.79 1021.06 1021.28 1021.45 1021.62
1010.31 1010.81 1011.68 1012.59 1013.35 1013.82 1014.31 1014.83 1015.17 1015.49 1015.81 1016.21 1016.48 1016.78 1017.12 1017.30 1017.47 1017.72 1018.14 1018.36 1018.48 1018.70 1018.94 1019.14 1019.25 1019.52 1019.71 1019.84 1019.97 1020.09 1020.15 1019.96 1018.43 1018.75 1018.83 1019.56 1020.57 1020.79 1020.84 1021.07 1021.31 1021.47 1021.63
1010.35 1010.91 1011.54 1012.25 1013.07 1013.63 1014.07 1014.73 1015.30 1015.62 1015.85 1016.15 1016.44 1016.72 1017.12 1016.79 1017.16 1017.62 1017.87 1018.21 1018.53 1018.82 1019.02 1019.24 1019.42 1019.67 1019.92 1020.03 1020.12 1020.16 1019.93 1018.31 1018.37 1018.30 1018.43 1020.15 1020.65 1020.83 1020.82 1021.07 1021.25 1021.40 1021.55
1009.82 1010.47 1011.29 1011.94 1012.63 1013.30 1013.46 1014.40 1014.83 1015.10 1015.40 1015.95 1016.27 1016.55 1016.81 1016.16 1016.56 1017.11 1017.62 1018.22 1018.43 1018.84 1019.12 1019.37 1019.56 1019.78 1019.94 1019.03 1019.57 1020.10 1018.92 1018.47 1018.58 1018.50 1018.53 1020.22 1020.70 1020.81 1020.86 1021.00 1021.16 1021.34 1021.48
1009.46 1010.19 1010.95 1011.79 1012.30 1012.92 1012.99 1014.04 1014.20 1014.42 1015.15 1015.43 1015.99 1016.24 1016.30 1016.74 1017.29 1017.51 1017.33 1017.75 1018.29 1018.89 1018.81 1019.09 1019.40 1019.34 1018.93 1018.22 1018.43 1018.75 1018.50 1018.80 1018.26 1018.36 1019.14 1020.13 1020.59 1020.76 1020.81 1020.87 1021.06 1021.26 1021.38
1009.17 1009.97 1010.84 1011.59 1012.31 1012.70 1012.86 1013.69 1013.79 1013.69 1014.17 1014.62 1015.77 1016.01 1016.31 1016.48 1017.30 1017.40 1017.49 1017.17 1017.65 1018.46 1018.62 1018.32 1018.23 1018.30 1018.66 1018.90 1018.61 1018.60 1018.84 1018.66 1018.32 1018.29 1018.67 1019.82 1020.27 1020.49 1020.60 1020.69 1020.88 1021.09 1021.25
1009.07 1009.92 1010.90 1011.60 1012.27 1012.75 1013.02 1013.09 1013.28 1013.64 1013.98 1014.24 1015.09 1015.79 1015.99 1016.30 1016.88 1017.35 1017.70 1017.36 1017.40 1018.17 1018.48 1018.30 1017.91 1018.54 1018.91 1019.02 1019.07 1019.06 1018.76 1018.74 1018.70 1018.55 1018.31 1019.22 1019.78 1020.09 1020.31 1020.47 1020.60 1020.80 1021.02
1008.92 1009.60 1010.65 1011.79 1012.32 1012.54 1013.02 1013.31 1013.64 1013.85 1013.88 1014.20 1014.36 1015.10 1015.78 1015.99 1016.45 1016.93 1017.35 1017.30 1017.13 1017.30 1018.19 1018.46 1018.22 1018.40 1018.72 1018.79 1018.93 1018.94 1018.86 1018.70 1018.64 1018.61 1018.26 1018.13 1019.20 1019.64 1019.99 1020.23 1020.32 1020.49 1020.71
1008.48 1009.36 1010.11 1011.23 1012.24 1012.52 1012.91 1013.37 1013.64 1013.68 1013.94 1014.07 1014.18 1014.90 1015.64 1015.81 1016.02 1016.17 1016.55 1016.57 1017.00 1017.25 1017.58 1017.94 1018.54 1018.21 1018.41 1018.54 1018.72 1018.67 1018.69 1018.73 1018.46 1018.51 1018.57 1017.98 1018.26 1019.20 1019.61 1019.91 1020.15 1020.22 1020.31
1008.04 1008.87 1009.79 1010.65 1011.72 1012.38 1012.59 1012.86 1012.99 1013.09 1013.70 1013.86 1014.16 1014.40 1015.43 1015.71 1015.96 1016.34 1015.84 1016.22 1016.21 1016.89 1017.29 1017.49 1017.84 1017.78 1018.07 1018.19 1018.43 1018.47 1018.23 1018.33 1018.32 1018.44 1018.37 1018.11 1017.71 1017.35 1018.79 1019.31 1019.69 1019.88 1019.98
1007.97 1008.72 1009.42 1010.17 1011.33 1011.93 1012.40 1012.54 1012.85 1013.11 1013.40 1013.46 1013.79 1014.12 1014.89 1015.51 1015.77 1015.96 1015.75 1015.85 1016.48 1016.31 1016.52 1016.73 1017.17 1017.46 1017.65 1017.86 1017.90 1018.01 1018.04 1018.00 1017.87 1017.78 1017.82 1017.87 1018.03 1018.02 1017.42 1018.20 1018.94 1019.38 1019.55
1007.88 1008.64 1009.30 1009.84 1010.68 1011.45 1012.21 1012.63 1012.62 1012.92 1013.24 1013.17 1013.30 1013.56 1014.30 1015.03 1015.34 1015.83 1015.39 1015.65 1016.36 1016.22 1016.24 1016.41 1016.75 1017.13 1017.32 1017.23 1017.27 1017.12 1017.52 1017.55 1017.39 1017.29 1017.36 1017.45 1017.37 1017.58 1017.70 1017.80 1018.03 1018.15 1018.67
1007.31 1008.17 1008.92 1009.49 1010.28 1011.15 1011.21 1011.72 1011.71 1012.13 1012.66 1012.85 1013.58 1013.67 1013.89 1014.35 1014.74 1015.18 1015.08 1015.42 1016.34 1015.81 1015.87 1016.45 1016.78 1016.96 1016.93 1017.08 1017.10 1017.12 1017.05 1017.22 1017.20 1016.99 1016.71 1016.59 1016.53 1016.78 1017.23 1017.40 1017.59 1017.37 1017.23
1006.34 1007.37 1008.27 1008.93 1009.65 1010.38 1010.65 1010.69 1010.87 1011.42 1011.84 1012.13 1012.53 1012.99 1013.45 1013.89 1014.17 1014.53 1014.83 1014.83 1015.62 1016.01 1016.22 1016.53 1016.50 1016.24 1016.47 1016.64 1016.72 1016.48 1016.11 1015.96 1016.04 1016.35 1016.40 1016.25 1016.28 1016.28 1016.32 1016.59 1016.96 1017.18 1017.24
1005.40 1006.52 1007.58 1008.35 1008.96 1009.61 1009.94 1010.48 1010.93 1011.18 1011.48 1011.75 1011.93 1012.37 1012.79 1013.19 1013.45 1013.86 1014.20 1014.60 1014.69 1015.22 1015.71 1015.89 1016.34 1016.21 1015.67 1016.05 1016.63 1016.05 1015.60 1015.36 1015.17 1015.09 1015.57 1015.81 1015.89 1015.83 1015.63 1015.75 1016.10 1016.38 1016.73
1005.29 1006.09 1007.22 1007.90 1008.36 1008.86 1009.37 1009.45 1009.89 1009.99 1009.99 1010.26 1010.93 1011.43 1011.94 1012.60 1012.94 1013.26 1013.64 1013.86 1014.44 1014.91 1015.02 1015.21 1015.44 1016.02 1016.19 1016.15 1016.23 1016.54 1016.56 1016.65 1016.72 1016.47 1015.49 1015.41 1015.86 1016.02 1015.89 1015.82 1015.55 1015.68 1016.01
1005.64 1005.87 1006.78 1007.46 1008.04 1008.44 1008.86 1008.91 1009.02 1009.44 1009.35 1009.69 1010.08 1010.55 1011.31 1011.77 1012.25 1012.43 1012.78 1013.17 1013.62 1014.20 1014.65 1014.92 1015.12 1015.33 1015.68 1015.95 1016.21 1016.16 1016.51 1016.55 1016.74 1016.86 1015.73 1015.32 1014.88 1014.59 1014.80 1014.89 1015.05 1014.96 1015.09
1006.26 1006.17 1006.49 1007.10 1007.62 1008.01 1008.28 1008.57 1008.52 1008.51 1008.69 1008.69 1009.23 1009.64 1010.13 1010.60 1011.12 1011.74 1012.01 1012.42 1012.69 1013.02 1013.46 1014.01 1014.32 1014.73 1014.96 1015.26 1015.65 1015.97 1015.89 1015.79 1016.09 1016.09 1016.00 1015.61 1014.49 1013.89 1014.04 1014.51 1014.57 1014.43 1014.50
Thickness
5793 5785 5777 5777 5777 5776 5773 5771 5770 5768 5767 5766 5764 5764 5764 5764 5764 5763 5762 5762 5762 5761 5763 5762 5763 5764 5765 5766 5767 5766 5769 5766 5765 5764 5764 5765 5763 5762 5761 5761 5763 5761 5755
5801 5785 5776 5776 5775 5774 5772 5770 5769 5767 5766 5764 5762 5761 5762 5762 5762 5761 5761 5761 5761 5761 5762 5762 5763 5764 5764 5765 5767 5765 5767 5767 5764 5764 5765 5765 5763 5762 5762 5762 5764 5759 5756
5800 5787 5779 5776 5775 5773 5771 5768 5766 5764 5764 5762 5761 5760 5760 5759 5760 5760 5759 5760 5759 5760 5761 5762 5763 5764 5764 5764 5766 5765 5766 5766 5764 5764 5768 5773 5767 5762 5762 5761 5759 5757 5755
5803 5791 5782 5774 5772 5771 5769 5765 5763 5761 5760 5760 5760 5759 5758 5758 5757 5758 5759 5759 5757 5758 5760 5761 5762 5763 5762 5763 5764 5763 5764 5764 5763 5768 5774 5774 5770 5763 5762 5761 5759 5757 5755
5801 5796 5783 5775 5772 5769 5767 5764 5762 5759 5758 5759 5758 5756 5756 5757 5756 5756 5757 5757 5757 5757 5758 5760 5761 5761 5761 5762 5763 5762 5764 5765 5766 5771 5773 5775 5773 5764 5762 5761 5760 5758 5758
5802 5797 5780 5776 5774 5770 5767 5764 5761 5757 5756 5755 5756 5755 5754 5754 5755 5756 5756 5756 5755 5755 5757 5758 5759 5759 5761 5762 5761 5761 5763 5765 5769 5774 5772 5770 5774 5764 5763 5762 5761 5759 5757
5802 5796 5781 5776 5774 5771 5767 5764 5761 5757 5754 5755 5754 5754 5753 5753 5753 5754 5754 5755 5754 5754 5756 5758 5759 5759 5761 5761 5761 5760 5763 5765 5773 5775 5773 5775 5768 5763 5763 5762 5760 5759 5758
5803 5796 5784 5775 5772 5770 5767 5763 5761 5757 5754 5752 5753 5753 5752 5752 5752 5751 5753 5753 5752 5753 5755 5757 5758 5758 5760 5760 5760 5761 5762 5765 5772 5774 5772 5773 5765 5763 5763 5762 5760 5759 5759
5803 5796 5784 5776 5771 5768 5766 5762 5760 5757 5753 5751 5750 5750 5750 5750 5750 5749 5750 5751 5751 5753 5753 5754 5756 5756 5757 5758 5760 5761 5761 5764 5773 5775 5774 5772 5764 5763 5763 5762 5761 5760 5759
5802 5796 5786 5778 5772 5769 5764 5761 5758 5756 5753 5750 5748 5748 5747 5747 5749 5750 5749 5749 5750 5751 5752 5752 5754 5754 5755 5756 5758 5759 5760 5763 5774 5774 5774 5770 5765 5763 5763 5763 5762 5761 5760
5802 5797 5789 5782 5774 5770 5767 5761 5757 5755 5752 5749 5747 5747 5746 5750 5749 5750 5751 5751 5750 5750 5750 5751 5752 5753 5753 5754 5756 5758 5761 5774 5774 5776 5777 5767 5764 5764 5764 5763 5762 5762 5761
5802 5799 5793 5786 5779 5773 5772 5765 5761 5758 5754 5746 5744 5748 5748 5756 5755 5752 5751 5749 5750 5749 5748 5749 5750 5751 5752 5760 5758 5757 5767 5771 5772 5773 5776 5766 5764 5764 5764 5763 5763 5762 5762
5808 5802 5796 5788 5781 5776 5776 5768 5765 5763 5757 5751 5748 5748 5751 5750 5748 5749 5752 5751 5750 5748 5750 5750 5750 5753 5758 5766 5766 5765 5769 5768 5773 5775 5772 5766 5764 5764 5764 5764 5763 5762 5762
5809 5804 5798 5791 5783 5778 5776 5770 5769 5770 5765 5761 5752 5751 5751 5752 5748 5750 5752 5757 5755 5750 5752 5756 5758 5760 5759 5760 5764 5766 5765 5768 5772 5774 5774 5768 5766 5765 5765 5765 5764 5763 5762
5808 5804 5797 5791 5784 5778 5775 5773 5773 5770 5767 5766 5759 5754 5753 5754 5752 5751 5751 5755 5757 5753 5751 5755 5760 5757 5756 5758 5759 5761 5765 5767 5768 5771 5775 5771 5768 5767 5766 5765 5765 5764 5762
5810 5805 5800 5789 5784 5780 5775 5771 5769 5767 5768 5766 5766 5762 5757 5756 5755 5754 5753 5755 5760 5759 5753 5753 5757 5757 5756 5758 5758 5760 5763 5766 5767 5769 5773 5776 5771 5769 5767 5766 5766 5765 5764
5814 5808 5802 5794 5785 5781 5777 5771 5766 5766 5764 5765 5766 5761 5758 5758 5758 5758 5757 5760 5759 5759 5758 5757 5754 5758 5757 5758 5758 5760 5762 5763 5767 5768 5769 5775 5775 5770 5768 5767 5765 5765 5764
5819 5810 5804 5798 5788 5781 5779 5776 5774 5772 5766 5764 5763 5762 5757 5756 5756 5755 5761 5761 5763 5759 5758 5759 5759 5761 5759 5760 5758 5760 5764 5764 5766 5766 5768 5771 5776 5779 5771 5768 5765 5765 5764
5818 5811 5804 5800 5789 5785 5780 5777 5775 5772 5769 5768 5766 5763 5758 5755 5754 5754 5757 5759 5757 5761 5762 5762 5761 5761 5759 5760 5761 5762 5763 5764 5766 5768 5769 5770 5770 5771 5776 5774 5769 5766 5765
5817 5811 5805 5801 5794 5787 5781 5776 5776 5773 5770 5769 5768 5767 5762 5757 5756 5753 5758 5757 5753 5758 5761 5762 5761 5761 5761 5763 5764 5766 5764 5765 5767 5769 5769 5769 5771 5770 5770 5771 5770 5770 5768
5818 5810 5804 5799 5793 5787 5785 5779 5779 5773 5772 5771 5765 5765 5764 5760 5759 5756 5758 5758 5750 5757 5760 5756 5756 5757 5759 5762 5760 5759 5762 5764 5766 5769 5771 5773 5774 5773 5771 5770 5769 5771 5773
5819 5813 5806 5801 5795 5790 5788 5787 5786 5780 5777 5776 5772 5769 5766 5763 5761 5758 5757 5760 5755 5753 5753 5751 5753 5756 5758 5762 5755 5758 5754 5764 5769 5770 5771 5773 5773 5773 5774 5772 5771 5770 5769
5819 5813 5806 5801 5797 5792 5790 5785 5781 5780 5777 5773 5772 5770 5768 5765 5764 5762 5760 5756 5760 5758 5754 5755 5751 5752 5755 5759 5757 5758 5754 5753 5764 5773 5770 5771 5772 5773 5775 5775 5773 5772 5769
5813 5811 5803 5799 5797 5794 5790 5788 5783 5780 5777 5779 5775 5775 5772 5766 5764 5762 5761 5760 5756 5755 5757 5757 5758 5752 5750 5746 5753 5755 5756 5753 5736 5736 5763 5767 5767 5765 5768 5769 5772 5771 5770
5804 5803 5797 5793 5791 5791 5789 5789 5786 5781 5784 5783 5781 5776 5772 5770 5766 5765 5764 5763 5762 5757 5755 5756 5755 5754 5750 5747 5744 5748 5746 5749 5748 5739 5744 5755 5768 5773 5773 5772 5770 5771 5770
5790 5791 5789 5785 5783 5785 5785 5784 5785 5785 5784 5783 5780 5777 5774 5774 5772 5768 5766 5765 5766 5766 5763 5759 5758 5755 5753 5750 5748 5745 5745 5746 5743 5742 5740 5745 5757 5769 5773 5770 5769 5769 5768